Probability
1 1 0 0 0 0 0 0 0 0 1 3 6 8 7 4 2 1 0 3 10 13 11 11 11 7 4 2 1 0 0 0 0 0 0 0 0 0 0 0 0 0 0 0 0 0 0 0 0
1 0 0 0 0 0 0 0 0 1 3 6 10 12 8 3 1 0 1 6 15 19 17 15 13 9 5 3 2 1 0 0 0 0 0 0 0 0 0 0 0 0 0 0 0 0 0 0 0
0 0 0 0 0 0 0 1 2 4 6 11 16 16 9 3 2 2 5 13 22 25 23 21 20 15 9 5 4 2 1 0 0 0 0 0 0 0 0 0 0 0 0 0 0 0 0 0 0
0 0 0 0 0 0 0 1 4 6 10 17 23 21 12 7 9 10 14 22 30 31 27 26 27 22 13 7 4 3 1 0 0 0 0 0 0 0 0 0 0 0 0 0 0 0 0 0 0
0 0 0 0 0 0 0 2 5 8 15 26 34 29 19 19 26 27 26 30 38 40 35 32 32 26 16 9 5 3 2 0 0 0 0 0 0 0 0 0 0 0 0 0 0 0 0 0 0
0 0 0 0 0 0 0 2 6 11 21 34 41 36 29 34 44 41 33 35 43 47 43 38 32 23 15 10 6 4 2 1 0 0 0 0 0 0 0 0 0 0 0 0 0 0 0 0 0
0 0 0 0 0 0 0 2 6 14 26 36 43 42 38 42 48 43 35 37 44 49 47 40 29 19 13 9 6 4 3 1 0 0 0 0 0 0 0 0 0 0 0 0 0 0 0 0 0
0 0 0 0 0 0 0 2 7 18 29 38 43 45 45 47 49 45 39 38 43 46 45 38 27 16 10 7 5 3 3 2 0 0 0 0 0 0 0 0 0 0 0 0 0 0 0 0 0
0 0 0 0 0 0 0 2 9 23 36 42 45 49 54 57 57 52 46 42 42 42 38 33 25 15 9 6 5 4 4 2 0 0 0 0 0 0 0 0 0 0 0 0 0 0 0 0 0
0 0 0 0 0 0 0 2 10 26 39 46 50 54 60 63 62 58 51 46 41 36 31 26 21 16 9 6 6 6 5 2 1 0 0 0 0 0 0 0 0 0 0 0 0 1 0 0 0
0 0 0 0 0 0 0 1 8 20 31 43 52 54 56 58 60 57 52 47 40 34 29 23 18 14 10 7 6 5 4 3 1 0 0 0 0 0 0 0 0 0 0 0 0 0 0 0 0
0 0 0 0 0 0 0 1 6 15 25 40 51 51 49 52 55 54 50 45 38 33 27 21 15 10 8 7 5 3 3 2 1 0 0 0 0 0 0 0 0 0 0 0 0 0 0 0 0
0 0 0 0 0 1 1 2 7 17 31 42 48 48 45 46 48 49 47 43 37 30 25 20 14 8 5 4 3 3 3 2 1 0 0 0 0 0 0 0 0 0 0 0 0 0 0 0 0
0 0 0 0 0 1 2 3 8 23 38 44 42 41 39 40 44 46 44 42 37 31 26 22 17 12 7 4 3 4 3 2 0 0 0 0 0 0 0 0 0 0 0 0 0 0 0 0 0
0 0 0 0 0 0 1 3 11 28 42 43 37 34 35 36 41 43 43 42 41 38 33 29 25 19 13 8 5 4 3 1 0 0 0 0 0 0 0 0 0 0 0 0 0 0 0 0 0
0 0 0 0 0 0 0 2 12 30 44 42 36 34 34 35 36 39 41 43 44 42 38 34 31 26 19 12 8 5 2 1 0 0 0 0 0 0 0 0 0 0 0 0 0 0 0 0 0
0 0 0 0 0 0 0 2 11 28 40 40 35 33 33 32 33 35 39 42 42 41 37 35 33 28 21 15 11 6 2 1 0 0 0 0 0 0 0 0 0 0 0 0 0 0 0 0 0
0 0 0 0 0 0 0 2 9 23 34 35 31 29 28 27 27 29 34 37 38 37 35 33 31 26 19 15 12 7 3 1 0 0 0 0 0 0 0 0 0 0 0 0 0 0 0 0 0
0 0 0 0 0 0 1 3 8 18 26 27 27 25 23 22 21 24 28 32 35 34 31 30 28 22 15 12 12 8 3 1 0 0 0 0 0 0 0 0 0 0 0 0 0 0 0 0 0
0 0 0 0 0 0 1 3 6 11 15 18 21 22 21 20 19 20 23 28 30 29 27 25 23 18 11 10 11 8 4 1 1 1 0 0 0 0 0 0 0 0 0 0 0 0 0 0 0
0 0 0 0 1 1 1 2 4 5 7 11 14 17 19 18 16 17 20 23 24 23 21 19 17 14 11 9 9 8 5 3 2 1 0 0 0 0 0 0 0 0 0 0 0 0 0 0 0
0 0 0 0 0 0 0 0 1 2 3 6 8 12 15 14 13 14 18 20 19 18 18 16 14 11 9 7 7 7 5 2 1 1 0 0 0 0 0 0 0 0 0 0 0 0 0 0 0
0 0 0 0 0 0 0 0 0 0 1 2 3 6 10 11 11 12 14 16 15 15 16 16 13 10 7 5 4 3 2 0 0 0 0 0 0 0 0 0 0 0 0 0 0 0 0 0 0
0 0 0 0 0 0 0 0 0 0 0 0 0 3 6 9 9 9 10 11 11 12 14 14 11 8 7 6 3 1 0 0 0 0 0 0 0 0 0 0 0 0 0 0 0 0 0 0 0
0 0 0 0 0 0 0 0 0 0 0 0 0 2 5 6 7 7 7 8 9 11 11 9 7 6 7 7 4 1 0 0 0 0 0 0 0 0 0 0 0 0 0 0 0 0 0 0 0
0 0 0 0 0 0 0 0 0 0 0 0 1 3 5 5 4 5 6 8 10 10 8 6 4 5 5 6 5 2 1 0 0 0 0 0 0 0 0 0 0 0 0 0 0 0 0 0 0
0 0 0 0 0 0 0 0 0 0 0 0 1 2 4 3 2 4 6 7 8 9 8 6 5 4 4 4 4 3 1 0 0 0 0 0 0 0 0 0 0 0 0 1 1 1 0 0 0
0 0 0 0 0 0 0 0 0 0 0 0 0 1 1 1 1 3 5 5 6 7 7 7 5 4 4 4 3 3 1 0 0 0 0 0 0 0 0 0 0 0 1 2 2 2 1 0 0
0 0 0 0 0 0 0 0 0 0 0 0 1 1 1 0 1 2 3 4 5 7 8 7 7 6 5 5 4 4 2 1 0 0 0 0 0 0 0 0 0 0 1 2 3 3 2 1 0
0 0 0 0 0 0 0 0 0 0 0 0 1 2 2 1 0 1 2 3 4 7 9 9 8 9 7 6 5 5 3 1 0 0 0 0 0 0 0 0 0 0 1 2 3 3 3 2 1
Wind_Speed
7 5 2 1 3 3 2 5 5 4 1 2 7 10 9 6 4 4 5 14 18 17 14 18 20 20 19 18 18 17 17 16 16 16 15 15 15 15 15 15 14 14 14 14 13 13 13 13 12
4 4 2 1 3 1 5 6 6 6 5 8 9 10 9 7 7 9 8 15 19 17 13 15 21 20 20 19 18 17 17 17 16 16 15 15 15 15 15 14 14 14 14 13 13 12 12 11 11
4 4 2 1 2 4 5 5 7 5 5 7 6 6 6 5 8 7 10 18 17 15 12 16 22 21 20 19 18 17 17 17 16 16 15 15 15 14 14 14 13 13 13 13 12 11 11 10 10
1 1 1 1 6 8 7 6 7 7 4 6 9 7 4 4 7 12 18 18 16 14 12 16 22 21 20 19 18 17 17 16 16 15 15 15 15 14 14 13 13 13 12 12 11 10 9 8 8
2 2 0 3 7 7 7 7 6 6 5 8 10 8 3 2 14 20 18 17 17 13 11 15 21 21 21 20 19 18 17 16 16 15 15 14 14 14 14 13 12 12 12 11 10 9 8 7 7
1 2 0 4 7 7 4 5 7 9 10 10 9 8 2 7 16 17 16 15 16 15 12 13 21 21 20 19 19 18 17 16 16 15 14 14 14 13 13 13 12 12 11 10 8 7 6 5 6
2 1 3 5 6 5 1 5 8 9 9 8 10 8 5 7 12 15 15 14 14 14 12 10 12 15 19 19 18 18 17 16 15 15 14 14 13 13 12 12 12 11 10 9 7 6 5 4 4
4 1 4 4 4 4 1 4 7 10 8 9 8 9 8 11 13 13 13 12 12 11 11 10 9 9 10 12 17 18 17 16 15 15 14 14 13 12 12 10 10 10 9 8 7 5 3 2 3
2 0 5 5 3 3 0 4 4 6 9 5 4 6 10 17 17 14 12 10 11 12 9 10 10 9 8 9 13 14 16 15 14 12 14 11 5 5 7 9 10 10 8 7 6 4 3 2 2
5 4 9 7 4 3 1 3 6 6 7 5 6 8 14 16 16 16 15 14 13 13 11 9 10 10 9 9 7 5 6 7 6 5 6 4 4 4 6 8 10 9 7 6 5 3 2 1 1
5 8 9 9 7 2 1 1 3 9 4 7 11 13 14 14 14 16 16 16 15 14 12 9 9 10 9 6 6 3 3 4 4 5 5 4 3 3 3 2 3 3 4 2 2 2 1 1 1
6 10 10 9 6 1 1 1 3 4 7 11 15 15 14 14 13 15 16 14 14 14 13 10 10 9 8 7 6 5 4 4 3 4 5 4 3 3 3 2 2 2 2 2 1 1 1 1 1
6 8 9 8 4 1 1 2 3 3 8 12 14 13 13 12 11 11 13 14 14 13 13 12 10 9 8 7 5 6 5 4 4 4 4 5 4 4 3 2 2 2 2 2 2 1 1 1 1
5 6 7 5 3 1 2 1 4 4 10 12 13 12 12 12 10 10 12 13 13 12 12 11 11 9 8 6 5 5 5 4 4 4 5 6 4 4 4 3 2 2 2 2 2 2 1 1 1
4 6 8 4 2 2 3 2 1 8 10 10 10 9 10 9 9 11 12 13 14 13 11 11 11 10 9 8 7 6 5 5 4 4 5 5 5 5 4 3 2 2 2 2 2 2 2 1 1
5 4 5 7 3 2 4 4 3 8 10 8 8 8 7 6 8 9 10 11 12 12 11 10 11 11 9 7 7 5 5 5 4 4 4 5 5 5 4 3 2 2 2 2 2 2 2 1 1
3 3 7 9 4 2 4 4 2 6 10 9 7 8 8 7 6 7 10 12 12 13 13 10 10 11 9 8 6 6 5 5 5 4 4 4 5 5 4 3 2 3 3 2 2 2 2 1 0
6 6 7 7 4 2 2 3 3 5 8 10 8 7 8 9 8 7 10 12 12 11 12 10 9 9 8 6 6 5 5 4 4 4 4 5 4 5 5 3 3 4 3 2 2 2 2 1 0
9 10 11 9 4 4 4 3 4 5 5 7 8 8 8 8 7 7 8 11 12 11 11 11 10 8 7 6 5 5 5 4 3 4 5 5 5 5 5 4 3 3 3 3 2 2 2 1 1
10 10 9 7 2 2 2 0 2 4 4 6 8 8 9 8 7 8 8 10 11 11 12 11 11 9 8 6 5 4 4 3 3 3 4 5 5 5 5 5 4 3 3 3 2 2 2 1 2
10 8 7 6 1 6 4 3 2 2 3 3 5 7 9 12 12 11 10 10 11 11 13 12 11 10 8 7 5 4 3 3 2 3 3 3 5 5 5 5 4 4 3 3 2 3 3 2 2
9 10 6 3 3 3 2 2 6 3 2 2 4 6 8 10 10 10 11 11 11 11 11 11 10 10 8 8 7 8 6 5 4 4 3 3 5 5 5 5 5 4 3 3 2 3 3 3 1
9 7 2 1 4 3 4 1 7 3 3 3 3 6 8 10 11 11 12 13 12 11 11 10 10 9 8 8 9 8 5 4 3 4 4 4 3 4 5 5 5 4 3 4 3 3 3 2 2
6 2 4 6 6 3 2 1 6 3 5 5 3 5 8 10 11 10 10 10 9 10 9 10 10 9 8 8 8 8 8 6 6 5 5 4 2 2 4 5 5 5 4 4 3 3 4 3 3
2 3 4 6 4 2 2 2 8 7 6 6 4 5 8 9 11 11 11 11 11 12 11 11 11 9 9 9 8 8 8 8 8 7 6 5 3 3 4 4 5 4 4 4 4 4 3 3 3
5 6 7 5 5 3 1 4 8 7 7 3 3 4 7 8 10 12 13 12 12 13 12 12 12 10 9 9 8 7 7 6 5 7 6 6 5 5 6 6 6 6 5 5 4 3 3 3 3
4 3 7 7 3 2 3 5 8 5 4 1 3 5 7 8 11 13 13 12 12 13 12 12 12 10 10 10 9 8 8 7 6 7 6 5 5 5 6 7 6 6 6 5 5 3 3 3 3
5 5 4 5 5 2 2 4 5 5 4 2 3 5 5 6 9 11 12 12 12 12 12 11 11 11 10 10 9 8 8 8 7 6 7 6 6 6 7 7 7 6 6 6 5 4 3 4 3
1 3 5 4 5 6 4 7 7 8 7 6 5 4 5 6 8 9 9 10 10 10 10 11 10 9 9 9 8 8 8 7 7 7 7 7 6 7 8 8 8 7 6 6 5 5 5 5 4
4 5 7 6 3 4 5 8 6 6 7 6 6 6 6 7 8 8 9 8 8 8 9 10 11 11 10 10 8 8 8 7 7 7 7 7 7 7 8 8 8 8 8 7 7 7 6 6 6
Wind_Direction
185 191 185 68 50 46 269 242 225 237 262 78 97 102 103 93 131 147 139 140 137 142 145 143 140 136 134 131 129 127 124 122 119 117 115 114 113 113 114 112 110 109 109 107 105 102 99 98 98
179 191 176 63 95 100 255 228 224 227 159 120 92 89 81 69 82 110 126 141 138 140 142 142 140 138 136 135 133 132 129 127 125 122 120 119 117 116 115 114 112 111 111 108 107 104 100 97 96
208 200 156 116 187 202 232 218 206 199 148 128 98 73 85 112 117 128 143 141 136 138 141 145 142 140 139 137 136 135 134 132 130 128 126 124 121 120 119 118 117 115 113 111 109 105 101 97 94
185 95 55 142 244 237 227 220 178 151 114 104 107 85 65 131 141 138 141 141 136 138 141 146 143 142 141 140 140 139 138 136 134 132 130 128 127 125 123 122 120 119 117 115 112 106 99 92 84
125 106 36 270 258 253 234 216 179 131 120 105 104 104 83 60 124 134 142 141 138 139 143 145 145 143 143 144 143 142 141 139 137 136 134 133 132 130 128 127 126 124 123 121 116 109 99 86 72
49 94 145 265 270 278 228 165 120 115 115 112 105 113 107 123 130 140 143 142 140 140 142 146 146 145 145 146 145 146 145 143 142 141 139 136 135 134 133 133 132 130 129 127 122 114 102 82 64
154 159 237 257 284 293 179 143 136 128 124 134 130 117 123 138 138 140 140 140 139 141 145 145 147 147 148 149 149 149 148 148 146 144 142 142 142 141 139 138 137 137 136 135 132 126 111 87 66
177 112 290 282 286 298 149 111 130 125 120 129 129 140 161 161 144 139 135 136 137 142 148 146 145 145 147 151 153 153 152 152 150 148 148 149 149 148 146 145 146 145 145 145 144 142 128 98 68
185 86 267 259 267 288 42 105 102 103 113 116 125 141 147 142 139 135 134 137 143 148 151 151 150 149 148 151 158 156 155 156 155 154 156 152 147 148 151 157 157 155 156 155 153 153 142 107 62
158 195 240 234 245 269 314 119 138 115 106 98 94 109 129 139 145 146 150 153 155 157 159 157 157 154 153 159 152 154 154 155 153 157 157 149 153 166 164 171 165 161 159 156 158 159 139 96 45
196 218 247 265 262 265 326 12 112 129 140 165 154 148 145 147 153 156 161 161 162 161 161 161 162 160 162 152 154 157 149 153 161 164 161 157 155 160 151 154 163 159 153 134 137 121 82 83 94
234 255 256 264 268 304 245 86 91 145 173 168 155 150 150 156 161 165 165 164 161 161 160 160 166 164 163 153 159 161 160 164 165 169 163 152 149 150 150 149 150 145 133 137 124 120 122 124 129
252 262 273 274 283 257 91 86 113 128 135 144 144 145 151 159 163 165 166 163 161 161 157 163 164 164 159 154 165 163 163 168 165 161 159 152 149 153 151 154 151 150 140 141 137 131 129 114 105
271 285 293 296 299 300 120 129 107 155 141 143 150 156 160 163 162 159 162 163 160 161 160 165 163 162 160 160 161 157 159 155 150 152 153 148 146 149 145 144 145 149 148 145 144 144 141 141 135
311 322 318 303 295 267 92 345 174 155 145 144 154 162 164 163 160 166 168 164 159 155 158 164 161 159 160 156 156 152 154 146 144 144 144 141 140 143 142 138 139 153 141 129 111 102 97 101 103
345 339 306 290 274 252 114 250 238 148 146 152 157 158 164 168 173 166 161 155 150 148 151 161 163 156 153 149 141 142 147 142 143 142 138 136 137 138 132 130 134 136 121 116 114 100 92 76 79
345 289 276 284 251 202 136 222 221 158 149 157 172 172 168 171 180 161 157 152 150 152 154 158 155 153 151 144 137 144 146 143 146 143 137 135 133 131 124 125 125 120 108 107 127 97 108 98 70
263 272 277 266 256 170 156 219 191 165 154 162 172 180 172 175 177 164 155 152 152 157 155 152 147 151 147 137 131 134 134 140 142 144 145 138 134 130 123 120 120 113 104 99 98 100 87 112 142
253 270 277 274 251 144 177 197 196 174 163 169 178 178 175 174 169 160 159 160 160 162 157 154 153 156 151 146 147 147 149 151 148 157 150 143 139 132 125 122 120 113 114 124 117 99 74 47 56
262 268 276 287 282 125 131 144 185 183 201 192 186 179 170 162 160 167 165 165 164 165 163 160 161 166 165 163 154 146 143 150 153 154 145 149 146 142 137 135 135 126 115 105 94 94 89 34 58
270 253 246 246 64 50 84 359 290 223 213 198 192 185 174 173 172 173 172 172 171 170 168 169 168 169 168 158 136 126 107 103 115 137 148 160 151 146 140 141 136 134 128 131 122 112 113 92 23
268 256 238 234 86 10 39 261 280 270 299 213 192 186 180 179 176 176 175 173 179 178 169 166 166 167 167 159 156 156 155 160 172 166 163 160 151 146 144 143 143 141 134 138 136 114 112 113 71
255 262 258 123 107 69 13 77 290 330 302 270 220 191 183 182 177 175 176 176 177 173 169 168 166 167 167 167 164 160 157 159 149 146 151 155 152 153 150 146 143 144 140 143 131 113 107 112 120
261 309 34 48 71 52 289 147 281 261 253 257 244 203 185 181 175 174 174 167 170 169 170 167 168 172 171 170 167 164 164 159 152 158 165 168 160 160 160 151 149 152 148 148 145 134 125 122 116
318 78 17 355 11 256 249 205 255 251 257 236 232 209 185 176 173 173 172 171 172 173 173 171 171 175 174 173 174 173 173 168 169 170 175 172 171 180 186 163 160 160 161 156 147 141 142 139 132
249 155 167 209 225 242 277 245 260 271 279 253 197 176 169 172 175 177 178 177 176 178 176 175 177 178 177 178 178 177 176 175 177 178 176 181 185 189 184 175 174 172 166 161 152 147 160 149 149
230 227 177 145 135 129 258 281 297 299 319 274 152 153 172 181 181 182 180 179 179 179 182 182 181 181 182 181 178 180 179 178 179 180 179 183 188 189 183 179 177 174 170 165 156 163 176 162 166
179 168 96 119 155 189 241 257 249 266 268 257 171 170 178 187 188 185 182 182 184 185 185 184 184 184 184 181 182 187 184 182 180 179 185 188 191 188 177 180 178 175 175 172 165 169 180 172 181
227 117 125 128 152 154 202 252 228 214 215 218 203 184 179 193 190 185 183 185 183 182 183 185 185 182 183 183 184 182 183 184 180 184 190 189 188 183 181 181 179 179 181 178 175 184 182 185 197
182 177 150 153 202 159 169 253 255 209 209 203 194 194 189 190 180 174 174 175 175 179 183 187 185 184 186 184 182 185 184 182 184 191 193 187 185 184 182 179 180 186 187 184 184 193 191 193 200